Cloud_Cover
100 100 100 100 100 100 97 45 100 100 55 11 98 100 100 100 99 37 5 5 5 1 0 0 5 5 5 4 0 0 0 0 0 0 0 0 0 1 4 2 4 0 0 0
99 100 100 100 100 100 100 99 93 100 79 53 84 100 100 100 59 5 5 5 5 5 0 5 5 21 5 0 0 0 0 0 0 0 0 0 4 5 5 5 4 0 0 0
100 100 100 100 100 100 100 100 100 100 85 38 39 13 100 98 20 22 5 6 5 5 5 4 5 3 1 0 0 0 0 0 0 0 0 0 0 2 5 5 0 0 0 0
100 100 100 100 100 100 100 99 100 100 100 100 21 5 81 100 32 5 5 5 5 0 2 5 0 0 0 0 0 0 0 0 0 0 0 0 0 0 4 5 5 5 1 5
100 100 100 100 100 100 100 100 100 100 100 92 97 12 8 64 23 5 5 5 5 5 5 2 0 0 0 0 0 0 0 3 4 5 2 2 5 5 5 5 22 8 12 5
100 100 100 100 100 100 100 100 100 100 94 59 75 22 5 75 46 5 5 5 5 5 1 0 0 0 0 2 4 5 18 8 31 5 32 5 5 5 5 22 5 55 56 16
100 100 100 100 100 100 100 100 100 90 93 5 36 45 97 89 6 5 5 5 2 4 0 0 0 0 1 5 5 30 100 100 34 5 5 41 73 94 100 61 77 100 100 100
100 100 100 100 100 100 100 100 100 92 29 10 32 34 100 100 26 7 5 5 5 5 5 5 5 0 0 5 5 90 45 6 5 74 90 89 99 100 100 100 100 100 100 100
100 100 100 100 100 100 100 100 100 100 91 75 72 100 100 100 48 5 5 2 1 5 5 5 5 5 1 1 0 0 3 5 27 71 72 83 99 100 100 100 100 100 100 100
100 100 100 100 100 100 100 100 78 34 50 66 5 26 86 82 5 5 5 2 4 5 5 5 5 5 5 5 2 3 5 5 82 100 98 100 100 100 100 100 100 100 100 100
100 100 100 100 94 76 98 80 100 100 35 8 53 5 6 13 5 5 5 5 5 5 5 5 5 5 5 14 19 5 5 15 16 72 98 100 100 100 100 100 100 100 100 100
100 100 100 100 99 99 99 75 94 100 100 98 19 61 5 86 5 28 5 5 5 5 5 5 5 38 46 100 5 18 41 62 27 76 98 100 100 100 100 100 100 100 100 100
94 100 100 96 100 100 100 100 100 100 93 81 46 52 100 69 41 5 5 5 14 5 5 5 5 25 70 77 56 61 40 49 94 100 100 100 100 100 100 100 100 100 100 100
100 100 98 100 100 100 100 100 100 100 100 100 91 100 100 66 10 5 5 5 6 9 13 49 19 49 54 86 74 55 14 5 5 41 55 74 76 80 73 57 28 100 100 100
100 100 86 100 99 100 100 100 100 100 100 100 100 100 100 8 5 5 5 5 36 28 5 35 52 42 67 100 46 23 37 52 18 57 60 11 9 52 59 63 33 87 100 100
99 98 100 100 100 100 100 100 100 100 100 100 100 100 91 6 58 37 5 28 66 95 18 10 47 63 42 96 97 48 5 5 47 63 15 26 60 53 21 18 37 52 56 74
100 99 100 100 100 100 9 100 100 100 100 100 98 100 63 32 68 26 96 98 63 98 78 37 56 65 51 65 93 9 99 55 53 54 5 5 5 5 5 5 17 16 56 28
100 100 100 96 100 90 54 100 100 100 100 100 100 99 5 4 14 84 88 65 10 62 57 8 66 17 47 98 91 61 66 94 54 63 35 5 5 5 5 5 5 30 60 67
100 100 100 100 100 51 10 88 100 100 100 100 84 13 66 96 88 96 100 98 65 86 53 55 58 12 5 59 100 92 100 100 100 36 46 64 5 5 5 9 5 5 53 25
100 100 100 90 64 16 98 100 100 100 100 98 9 5 56 22 8 5 99 90 28 33 48 39 18 5 5 44 77 100 100 100 100 100 100 100 12 8 62 5 5 5 6 5
100 100 100 100 100 99 100 100 100 100 75 43 15 13 5 5 5 5 17 39 5 7 16 32 85 36 36 18 98 100 100 100 100 100 98 100 100 53 44 47 31 10 5 5
100 100 100 100 100 100 100 98 100 76 100 97 99 99 83 52 22 5 5 5 5 5 5 10 36 37 5 5 53 98 100 100 100 100 100 100 88 88 69 83 74 49 69 67
100 100 100 100 100 98 95 100 100 32 18 83 6 6 5 5 5 5 5 5 5 5 5 5 5 5 5 18 67 98 72 100 100 100 100 100 100 100 100 100 99 97 76 98
100 100 99 100 100 100 63 62 87 98 49 5 5 5 9 5 5 5 5 5 5 5 5 7 8 38 8 6 52 74 94 82 98 99 100 100 100 100 100 100 100 100 99 96
100 100 100 100 100 100 100 100 96 41 33 72 48 5 5 5 5 5 5 5 5 5 27 25 22 54 18 7 80 100 100 99 100 99 91 100 100 100 100 100 100 100 100 100
100 100 100 100 100 100 100 100 90 22 75 73 69 30 7 5 5 5 5 9 6 11 14 32 84 97 94 74 100 100 100 100 100 100 100 100 100 100 100 100 100 100 100 100